[[{"header":{"parameterUnit":"m.s-1","parameterCategory":1,"la1":30.2991,"la2":30.254,"lo1":-89.0895,"lo2":-89.0444,"dy":0.0017,"dx":0.0017,"nx":28,"ny":28,"refTime":"2023-11-07T09:00:00:Z","depth":0,"parameterNumber":2,"parameterNumberName":"U-component_of_WINDS"},"data":[0,0,0,0,0,0,0,0,0,0,0,0,0,0,0,0,0,0,0,0,0,0,0,0,0,0,0,0,0,0,0,0,0,0,0,0,0,0,0,0,0,0,0,0,0,0,0,0,0,0,0,0,0,0,0,0,0,0,0.9424,0.9424,0,0.945,0.945,0.945,0.9423,0.9422,0.9421,0.942,0.9448,0.9449,0.9451,0,0,0,0,0,0,0,0,0,0,0,0,0,0.9353,0.9355,0.9424,0.9424,0.9425,0.945,0.945,0.945,0.9424,0.9422,0.9421,0.942,0.9447,0.9449,0.9451,0,0,0,0,0,0,0,0,0,0,0,0,0,0.9382,0.9355,0.9424,0.9414,0.9414,0.9449,0.945,0.945,0.9424,0.9422,0.9421,0.9419,0.9447,0.9449,0.9452,0.9499,0,0,0.9459,0.946,0,0,0,0,0,0,0,0,0.938,0.9385,0.9415,0.9415,0.9414,0.9432,0.9435,0.9467,0.9424,0.942,0.942,0.9418,0.9444,0.9446,0.9455,0.95,0.9501,0.946,0.9461,0.9462,0.9463,0,0,0,0,0,0,0,0.9378,0.9383,0.9434,0.9416,0.9415,0.9409,0.9411,0.9441,0.944,0.942,0.9418,0.9422,0.9443,0.9452,0.9455,0.9501,0.946,0.9462,0.9463,0.9464,0.9587,0.9589,0,0,0,0,0,0,0.9377,0.9382,0.9433,0.9435,0.9393,0.9412,0.9414,0.9428,0.944,0.944,0.9423,0.942,0.9449,0.9452,0.9456,0.9512,0.9462,0.9465,0.9466,0.9586,0.9588,0.959,0,0,0,0,0,0,0.9376,0.9382,0.9432,0.9408,0.9414,0.9414,0.943,0.9429,0.9438,0.9442,0.9442,0.9432,0.9448,0.9452,0.9488,0.9513,0.9466,0.9468,0.9584,0.9586,0.9589,0.9625,0,0,0,0,0,0,0.9374,0.9382,0.9399,0.9408,0.9415,0.9464,0.9431,0.9431,0.9442,0.9439,0.9451,0.9451,0.9447,0.9485,0.9491,0.9515,0.947,0.9581,0.9585,0.9588,0.9621,0.9628,0.9634,0,0,0,0,0,0.9371,0.9408,0.94,0.9407,0.9437,0.9465,0.9469,0.9463,0.9444,0.9462,0.9465,0.9451,0.9509,0.9489,0.9495,0.9521,0.958,0.9584,0.9588,0.9618,0.9627,0.9634,0,0,0,0,0,0,0.9402,0.9409,0.94,0.9441,0.9453,0.946,0.9482,0.9472,0.9489,0.9485,0.9477,0.948,0.9518,0.9523,0.95,0.9568,0.9542,0.9547,0.9563,0.9571,0.9577,0.9575,0.9472,0,0,0,0,0,0.9414,0.9435,0.9441,0.9476,0.9483,0.9482,0.9494,0.9488,0.95,0.9505,0.951,0.9522,0.9543,0.9557,0.9577,0.9622,0.9625,0.9643,0.965,0.9655,0.966,0.9684,0.9693,0.9602,0.9602,0.9602,0,0,0.9437,0.9444,0.9458,0.9483,0.9491,0.9514,0.9486,0.9512,0.9529,0.9509,0.9543,0.9547,0.9561,0.9601,0.962,0.9607,0.9685,0.966,0.9664,0.9666,0.9689,0.9698,0.9705,0.9605,0.9605,0.9604,0,0,0.9493,0.95,0.953,0.9539,0.9552,0.9552,0.9559,0.9569,0.9571,0.9605,0.959,0.9611,0.9648,0.9658,0.9668,0.9729,0.9716,0.9735,0.9769,0.9793,0.98,0.9806,0.9828,0.9836,0.974,0.974,0.974,0,0.9521,0.9555,0.9548,0.9574,0.9586,0.9569,0.96,0.9609,0.9628,0.9636,0.9622,0.9668,0.9675,0.9719,0.9733,0.9742,0.9751,0.9734,0.9799,0.9806,0.9811,0.9832,0.984,0.9742,0.9742,0.9742,0.9742,0,0.9589,0.9613,0.9636,0.9654,0.9668,0.9697,0.9695,0.9711,0.9704,0.9705,0.9741,0.975,0.9771,0.9781,0.9775,0.9824,0.9816,0.98,0.9774,0.9822,0.9842,0.985,0.9746,0.9745,0.9744,0.9744,0,0,0.9663,0.9678,0.9686,0.9695,0.9708,0.9727,0.9756,0.9776,0.979,0.9804,0.9828,0.986,0.9846,0.9857,0.9853,0.9874,0.9922,0.9856,0.9856,0.9868,0.9977,0.9988,0.9997,0.9914,0.9916,0.9917,0.9976,0,0.9719,0.9768,0.9763,0.9809,0.9832,0.9816,0.9842,0.9853,0.9855,0.9875,0.9878,0.99,0.988,0.9887,0.9908,0.9912,0.9943,0.9907,0.9937,0.9938,0.9934,1.0007,1.0019,1.0073,0.9983,0.9984,0.9985,0,0.979,0.9806,0.9855,0.9866,0.9875,0.9897,0.9916,0.9935,0.9948,0.9949,0.9962,0.9954,0.9984,0.9957,0.9998,0.9974,0.9986,0.999,0.9992,0.9994,0.9964,1.0011,1.0091,1.0099,0.9997,0.9996,0.9995,0,0.9839,0.9873,0.9907,0.9915,0.9928,0.9944,0.9951,0.9962,0.9975,0.9992,1.0001,1.0021,1.0033,1.0049,1.0047,1.0028,1.0089,1.0062,1.009,1.009,1.0103,1.0103,1.0186,1.0112,1.0112,1.0111,1.0111,0,0.9901,0.9932,0.9929,0.995,0.9984,0.9979,1.0013,1.0018,1.0028,1.005,1.0039,1.006,1.0056,1.0077,1.0076,1.0111,1.0116,1.0117,1.0116,1.0118,1.0118,1.0125,1.0121,1.0114,1.0113,1.0113,1.0112,0,0.9961,0.9961,0.9997,1.0007,1.001,1.0035,1.0044,1.0064,1.0065,1.0094,1.01,1.0103,1.0127,1.0127,1.0155,1.0154,1.0197,1.0192,1.0192,1.0191,1.0219,1.0217,1.031,1.0323,1.0241,1.0241,1.0242,0,1.0001,1.0024,1.0036,1.005,1.0058,1.008,1.0093,1.0089,1.0104,1.0121,1.0139,1.0163,1.0181,1.0222,1.0227,1.0248,1.0244,1.0275,1.0247,1.0248,1.0244,1.0243,1.0245,1.028,1.0281,1.0282,1.0283,0,1.0071,1.007,1.0089,1.0109,1.0125,1.0141,1.0155,1.0167,1.0165,1.0182,1.0207,1.0221,1.025,1.0274,1.0295,1.0302,1.0293,1.0292,1.0299,1.0301,1.03,1.0301,1.0207,1.0289,1.0289,1.0288,1.0288,1.0288,1.0122,1.0142,1.0154,1.0176,1.0187,1.0201,1.022,1.0224,1.0245,1.0268,1.0265,1.0293,1.0306,1.0334,1.0343,1.0365,1.0354,1.0365,1.0368,1.0371,1.0374,1.0297,1.0369,1.0369,1.0369,1.0369,1.0369,0,1.0191,1.0198,1.0219,1.0239,1.0257,1.0246,1.0262,1.0278,1.0302,1.0316,1.0334,1.0364,1.0387,1.0394,1.0417,1.0433,1.043,1.044,1.0438,1.044,1.0382,1.0374,1.0442,1.0442,1.0442,1.0442,1.0442,1.0442,1.0229,1.0263,1.0264,1.0303,1.031,1.0337,1.0347,1.036,1.0371,1.0403,1.0423,1.0427,1.0438,1.0462,1.0483,1.0485,1.0494,1.0506,1.0506,1.0452,1.0444,1.0437,1.0429,1.0508,1.0508,1.0562,1.0562,1.0562]},{"header":{"parameterUnit":"m.s-1","parameterCategory":1,"la1":30.2991,"la2":30.254,"lo1":-89.0895,"lo2":-89.0444,"dy":0.0017,"dx":0.0017,"nx":28,"ny":28,"refTime":"2023-11-07T09:00:00:Z","depth":0,"parameterNumber":3,"parameterNumberName":"V-component_of_WINDS"},"data":[0,0,0,0,0,0,0,0,0,0,0,0,0,0,0,0,0,0,0,0,0,0,0,0,0,0,0,0,0,0,0,0,0,0,0,0,0,0,0,0,0,0,0,0,0,0,0,0,0,0,0,0,0,0,0,0,0,0,1.0574,1.0574,0,1.0587,1.0587,1.0587,1.0544,1.0543,1.0541,1.054,1.0553,1.0554,1.0556,0,0,0,0,0,0,0,0,0,0,0,0,0,1.051,1.0512,1.0574,1.0574,1.0574,1.0587,1.0587,1.0587,1.0544,1.0542,1.0541,1.0539,1.0552,1.0554,1.0556,0,0,0,0,0,0,0,0,0,0,0,0,0,1.0532,1.0512,1.0573,1.0554,1.0552,1.0587,1.0587,1.0587,1.0544,1.0542,1.054,1.0539,1.0552,1.0554,1.0556,1.061,0,0,1.0563,1.0564,0,0,0,0,0,0,0,0,1.0531,1.0534,1.0557,1.0555,1.0554,1.0562,1.0569,1.0595,1.0545,1.0547,1.054,1.0538,1.0557,1.0559,1.0566,1.0611,1.0611,1.0564,1.0565,1.0566,1.0567,0,0,0,0,0,0,0,1.0529,1.0534,1.0579,1.0557,1.0555,1.0544,1.0545,1.0574,1.0563,1.0547,1.0544,1.0546,1.0556,1.0564,1.0566,1.0611,1.0564,1.0566,1.0567,1.0568,1.0701,1.0703,0,0,0,0,0,0,1.0531,1.0533,1.0578,1.0579,1.0537,1.0547,1.0548,1.0561,1.0563,1.0561,1.0548,1.0544,1.0561,1.0563,1.0566,1.0629,1.0566,1.0568,1.057,1.0699,1.0701,1.0704,0,0,0,0,0,0,1.0529,1.0535,1.0578,1.0555,1.056,1.055,1.0565,1.0562,1.057,1.0563,1.0561,1.0558,1.0559,1.0563,1.0599,1.0629,1.0569,1.0571,1.0696,1.07,1.0703,1.0756,0,0,0,0,0,0,1.0528,1.0535,1.0555,1.0556,1.0561,1.0611,1.0567,1.0564,1.0574,1.0569,1.0572,1.057,1.0558,1.0596,1.0602,1.0631,1.0573,1.0694,1.0698,1.0702,1.0752,1.0761,1.0769,0,0,0,0,0,1.0526,1.057,1.0557,1.0562,1.0586,1.0613,1.0616,1.0601,1.0577,1.0597,1.0593,1.057,1.0625,1.06,1.0606,1.0637,1.0692,1.0697,1.0701,1.0748,1.0759,1.0769,0,0,0,0,0,0,1.0573,1.0569,1.0555,1.06,1.0607,1.0606,1.0631,1.0613,1.0627,1.0622,1.0602,1.0603,1.0644,1.0644,1.0616,1.0689,1.0654,1.066,1.0688,1.0698,1.0707,1.0706,1.0575,0,0,0,0,0,1.0588,1.061,1.0606,1.0647,1.0651,1.0641,1.0652,1.064,1.0646,1.0649,1.0647,1.0654,1.0672,1.0685,1.0702,1.0752,1.0752,1.0776,1.0784,1.0791,1.0797,1.0824,1.0834,1.0719,1.0719,1.0719,0,0,1.0621,1.0622,1.0637,1.0656,1.066,1.0684,1.0643,1.067,1.0687,1.0652,1.0687,1.0686,1.0693,1.0736,1.0755,1.0738,1.0829,1.0797,1.0803,1.0805,1.083,1.0841,1.085,1.0723,1.0722,1.0722,0,0,1.0692,1.0695,1.073,1.0735,1.0741,1.0734,1.0742,1.0744,1.0742,1.0777,1.0751,1.0771,1.0804,1.0809,1.0817,1.0891,1.0871,1.0896,1.0941,1.0967,1.0976,1.0984,1.1011,1.1021,1.0902,1.0902,1.0902,0,1.0732,1.0767,1.075,1.0778,1.0787,1.0757,1.0792,1.0798,1.0809,1.0817,1.0796,1.0837,1.0839,1.0884,1.0902,1.0909,1.0918,1.0896,1.0976,1.0984,1.0991,1.1017,1.1027,1.0905,1.0905,1.0905,1.0904,0,1.0815,1.084,1.0866,1.0879,1.0892,1.0923,1.0911,1.0925,1.0912,1.0907,1.0942,1.0944,1.0961,1.097,1.0957,1.1013,1.1002,1.098,1.0944,1.1006,1.1029,1.1039,1.091,1.0909,1.0908,1.0907,0,0,1.0917,1.092,1.093,1.0936,1.0941,1.096,1.099,1.1007,1.102,1.1029,1.1053,1.1082,1.1061,1.1069,1.1056,1.1079,1.1139,1.1054,1.1054,1.107,1.1201,1.1219,1.1231,1.1125,1.1127,1.1128,1.1201,0,1.0988,1.104,1.1026,1.1078,1.11,1.1072,1.1098,1.1104,1.11,1.1118,1.1113,1.1134,1.1105,1.111,1.1131,1.1127,1.1165,1.1122,1.1149,1.115,1.1149,1.1243,1.1262,1.133,1.121,1.1212,1.1213,0,1.1078,1.1091,1.1146,1.1148,1.1156,1.118,1.1195,1.1212,1.1219,1.1214,1.1224,1.1206,1.1236,1.12,1.124,1.1211,1.1221,1.1221,1.1223,1.1226,1.1186,1.1249,1.1352,1.1363,1.1227,1.1226,1.1225,0,1.1148,1.1179,1.1216,1.1221,1.1224,1.1242,1.1244,1.1248,1.1259,1.1272,1.1279,1.1294,1.1303,1.1316,1.1303,1.1278,1.1346,1.1308,1.1343,1.1344,1.1359,1.1359,1.1466,1.1365,1.1364,1.1364,1.1364,0,1.1229,1.1263,1.1247,1.127,1.1308,1.1291,1.1329,1.1327,1.1332,1.1353,1.133,1.1351,1.1332,1.1352,1.1342,1.1377,1.1381,1.1378,1.1376,1.1381,1.1382,1.1388,1.1383,1.1367,1.1366,1.1366,1.1365,0,1.1314,1.1304,1.1342,1.1342,1.1343,1.1371,1.1371,1.1392,1.1386,1.1414,1.142,1.141,1.1432,1.1421,1.1443,1.1436,1.1482,1.1472,1.1481,1.1478,1.1514,1.1511,1.163,1.1645,1.1533,1.1534,1.1535,0,1.1366,1.1392,1.1395,1.1409,1.1412,1.1434,1.1445,1.1429,1.1442,1.1452,1.1472,1.1491,1.1506,1.1542,1.1537,1.1554,1.1545,1.1585,1.1547,1.1552,1.1547,1.1546,1.1549,1.1594,1.1595,1.1596,1.1597,0,1.1462,1.1456,1.1473,1.149,1.1504,1.1516,1.1526,1.1538,1.1522,1.1538,1.156,1.1572,1.1595,1.1615,1.1629,1.1631,1.1612,1.1609,1.1618,1.1624,1.1628,1.1627,1.1503,1.1606,1.1605,1.1605,1.1604,1.1604,1.1532,1.1555,1.156,1.1581,1.1587,1.1597,1.1617,1.1614,1.1632,1.165,1.1639,1.1665,1.1671,1.1688,1.1693,1.1713,1.1697,1.171,1.1713,1.1717,1.1722,1.1624,1.1715,1.1715,1.1715,1.1714,1.1714,0,1.1627,1.163,1.1649,1.1664,1.168,1.166,1.167,1.1685,1.1709,1.1716,1.1731,1.1757,1.1776,1.1773,1.179,1.1807,1.1799,1.1812,1.1812,1.1812,1.1735,1.1726,1.1819,1.1819,1.1819,1.1819,1.1819,1.1819,1.1678,1.1715,1.171,1.1749,1.1751,1.1777,1.1785,1.1794,1.1799,1.1829,1.1845,1.1843,1.1846,1.1864,1.1881,1.1879,1.1887,1.1905,1.19,1.1828,1.1818,1.1808,1.1799,1.1906,1.1906,1.1976,1.1976,1.1977]}]]